Year,Month,Day,Hour,Minute,Value (Times are PST for temperature in C)
2011,05,24,00,00,7.60
2011,05,24,00,01,7.60
2011,05,24,00,02,7.60
2011,05,24,00,03,7.60
2011,05,24,00,04,7.60
2011,05,24,00,05,7.60
2011,05,24,00,06,7.60
2011,05,24,00,07,7.60
2011,05,24,00,08,7.60
2011,05,24,00,09,7.60
2011,05,24,00,10,7.60
2011,05,24,00,11,7.50
2011,05,24,00,12,7.50
2011,05,24,00,13,7.50
2011,05,24,00,14,7.50
2011,05,24,00,15,7.40
2011,05,24,00,16,7.40
2011,05,24,00,17,7.40
2011,05,24,00,18,7.40
2011,05,24,00,19,7.40
2011,05,24,00,20,7.40
2011,05,24,00,21,7.40
2011,05,24,00,22,7.40
2011,05,24,00,23,7.40
2011,05,24,00,24,7.40
2011,05,24,00,25,7.50
2011,05,24,00,26,7.50
2011,05,24,00,27,7.40
2011,05,24,00,28,7.50
2011,05,24,00,29,7.40
2011,05,24,00,30,7.40
2011,05,24,00,31,7.40
2011,05,24,00,32,7.40
2011,05,24,00,33,7.40
2011,05,24,00,34,7.40
2011,05,24,00,35,7.40
2011,05,24,00,36,7.40
2011,05,24,00,37,7.40
2011,05,24,00,38,7.40
2011,05,24,00,39,7.40
2011,05,24,00,40,7.30
2011,05,24,00,41,7.30
2011,05,24,00,42,7.30
2011,05,24,00,43,7.30
2011,05,24,00,44,7.30
2011,05,24,00,45,7.30
2011,05,24,00,46,7.20
2011,05,24,00,47,7.30
2011,05,24,00,48,7.30
2011,05,24,00,49,7.30
2011,05,24,00,50,7.30
2011,05,24,00,51,7.30
2011,05,24,00,52,7.30
2011,05,24,00,53,7.20
2011,05,24,00,54,7.20
2011,05,24,00,55,7.20
2011,05,24,00,56,7.20
2011,05,24,00,57,7.20
2011,05,24,00,58,7.20
2011,05,24,00,59,7.30
2011,05,24,01,00,7.30
2011,05,24,01,01,7.30
2011,05,24,01,02,7.30
2011,05,24,01,03,7.30
2011,05,24,01,04,7.30
2011,05,24,01,05,7.30
2011,05,24,01,06,7.20
2011,05,24,01,07,7.30
2011,05,24,01,08,7.30
2011,05,24,01,09,7.30
2011,05,24,01,10,7.30
2011,05,24,01,11,7.20
2011,05,24,01,12,7.20
2011,05,24,01,13,7.20
2011,05,24,01,14,7.20
2011,05,24,01,15,7.20
2011,05,24,01,16,7.30
2011,05,24,01,17,7.30
2011,05,24,01,18,7.30
2011,05,24,01,19,7.30
2011,05,24,01,20,7.30
2011,05,24,01,21,7.30
2011,05,24,01,22,7.30
2011,05,24,01,23,7.30
2011,05,24,01,24,7.30
2011,05,24,01,25,7.30
2011,05,24,01,26,7.20
2011,05,24,01,27,7.20
2011,05,24,01,28,7.20
2011,05,24,01,29,7.20
2011,05,24,01,30,7.20
2011,05,24,01,31,7.20
2011,05,24,01,32,7.20
2011,05,24,01,33,7.20
2011,05,24,01,34,7.20
2011,05,24,01,35,7.20
2011,05,24,01,36,7.20
2011,05,24,01,37,7.20
2011,05,24,01,38,7.20
2011,05,24,01,39,7.20
2011,05,24,01,40,7.20
2011,05,24,01,41,7.20
2011,05,24,01,42,7.20
2011,05,24,01,43,7.20
2011,05,24,01,44,7.20
2011,05,24,01,45,7.20
2011,05,24,01,46,7.20
2011,05,24,01,47,7.20
2011,05,24,01,48,7.20
2011,05,24,01,49,7.20
2011,05,24,01,50,7.20
2011,05,24,01,51,7.20
2011,05,24,01,52,7.20
2011,05,24,01,53,7.20
2011,05,24,01,54,7.20
2011,05,24,01,55,7.20
2011,05,24,01,56,7.20
2011,05,24,01,57,7.20
2011,05,24,01,58,7.20
2011,05,24,01,59,7.20
2011,05,24,02,00,7.20
2011,05,24,02,01,7.20
2011,05,24,02,02,7.20
2011,05,24,02,03,7.20
2011,05,24,02,04,7.20
2011,05,24,02,05,7.20
2011,05,24,02,06,7.20
2011,05,24,02,07,7.10
2011,05,24,02,08,7.10
2011,05,24,02,09,7.10
2011,05,24,02,10,7.10
2011,05,24,02,11,7.10
2011,05,24,02,12,7.10
2011,05,24,02,13,7.10
2011,05,24,02,14,7.10
2011,05,24,02,15,7.10
2011,05,24,02,16,7.10
2011,05,24,02,17,7.10
2011,05,24,02,18,7.00
2011,05,24,02,19,7.00
2011,05,24,02,20,7.00
2011,05,24,02,21,7.00
2011,05,24,02,22,7.00
2011,05,24,02,23,6.90
2011,05,24,02,24,6.90
2011,05,24,02,25,6.90
2011,05,24,02,26,6.90
2011,05,24,02,27,6.90
2011,05,24,02,28,6.90
2011,05,24,02,29,6.90
2011,05,24,02,30,6.90
2011,05,24,02,31,6.90
2011,05,24,02,32,6.90
2011,05,24,02,33,6.90
2011,05,24,02,34,6.90
2011,05,24,02,35,6.90
2011,05,24,02,36,6.90
2011,05,24,02,37,6.90
2011,05,24,02,38,6.90
2011,05,24,02,39,6.90
2011,05,24,02,40,6.90
2011,05,24,02,41,6.90
2011,05,24,02,42,6.80
2011,05,24,02,43,6.80
2011,05,24,02,44,6.80
2011,05,24,02,45,6.80
2011,05,24,02,46,6.80
2011,05,24,02,47,6.80
2011,05,24,02,48,6.80
2011,05,24,02,49,6.80
2011,05,24,02,50,6.80
2011,05,24,02,51,6.80
2011,05,24,02,52,6.80
2011,05,24,02,53,6.70
2011,05,24,02,54,6.80
2011,05,24,02,55,6.70
2011,05,24,02,56,6.70
2011,05,24,02,57,6.70
2011,05,24,02,58,6.70
2011,05,24,02,59,6.70
2011,05,24,03,00,6.70
2011,05,24,03,01,6.70
2011,05,24,03,02,6.70
2011,05,24,03,03,6.70
2011,05,24,03,04,6.70
2011,05,24,03,05,6.60
2011,05,24,03,06,6.60
2011,05,24,03,07,6.60
2011,05,24,03,08,6.60
2011,05,24,03,09,6.60
2011,05,24,03,10,6.60
2011,05,24,03,11,6.60
2011,05,24,03,12,6.60
2011,05,24,03,13,6.60
2011,05,24,03,14,6.60
2011,05,24,03,15,6.60
2011,05,24,03,16,6.60
2011,05,24,03,17,6.60
2011,05,24,03,18,6.60
2011,05,24,03,19,6.60
2011,05,24,03,20,6.60
2011,05,24,03,21,6.50
2011,05,24,03,22,6.50
2011,05,24,03,23,6.50
2011,05,24,03,24,6.50
2011,05,24,03,25,6.50
2011,05,24,03,26,6.50
2011,05,24,03,27,6.50
2011,05,24,03,28,6.50
2011,05,24,03,29,6.50
2011,05,24,03,30,6.50
2011,05,24,03,31,6.50
2011,05,24,03,32,6.50
2011,05,24,03,33,6.50
2011,05,24,03,34,6.50
2011,05,24,03,35,6.50
2011,05,24,03,36,6.50
2011,05,24,03,37,6.50
2011,05,24,03,38,6.50
2011,05,24,03,39,6.50
2011,05,24,03,40,6.50
2011,05,24,03,41,6.50
2011,05,24,03,42,6.40
2011,05,24,03,43,6.40
2011,05,24,03,44,6.40
2011,05,24,03,45,6.40
2011,05,24,03,46,6.40
2011,05,24,03,47,6.40
2011,05,24,03,48,6.40
2011,05,24,03,49,6.40
2011,05,24,03,50,6.40
2011,05,24,03,51,6.40
2011,05,24,03,52,6.40
2011,05,24,03,53,6.40
2011,05,24,03,54,6.40
2011,05,24,03,55,6.40
2011,05,24,03,56,6.40
2011,05,24,03,57,6.40
2011,05,24,03,58,6.40
2011,05,24,03,59,6.40
2011,05,24,04,00,6.40
2011,05,24,04,01,6.40
2011,05,24,04,02,6.40
2011,05,24,04,03,6.40
2011,05,24,04,04,6.40
2011,05,24,04,05,6.40
2011,05,24,04,06,6.40
2011,05,24,04,07,6.30
2011,05,24,04,08,6.30
2011,05,24,04,09,6.30
2011,05,24,04,10,6.30
2011,05,24,04,11,6.30
2011,05,24,04,12,6.30
2011,05,24,04,13,6.30
2011,05,24,04,14,6.20
2011,05,24,04,15,6.20
2011,05,24,04,16,6.20
2011,05,24,04,17,6.20
2011,05,24,04,18,6.20
2011,05,24,04,19,6.20
2011,05,24,04,20,6.20
2011,05,24,04,21,6.20
2011,05,24,04,22,6.20
2011,05,24,04,23,6.20
2011,05,24,04,24,6.20
2011,05,24,04,25,6.20
2011,05,24,04,26,6.10
2011,05,24,04,27,6.10
2011,05,24,04,28,6.10
2011,05,24,04,29,6.10
2011,05,24,04,30,6.10
2011,05,24,04,31,6.10
2011,05,24,04,32,6.10
2011,05,24,04,33,6.10
2011,05,24,04,34,6.10
2011,05,24,04,35,6.00
2011,05,24,04,36,6.00
2011,05,24,04,37,6.10
2011,05,24,04,38,6.10
2011,05,24,04,39,6.10
2011,05,24,04,40,6.10
2011,05,24,04,41,6.10
2011,05,24,04,42,6.10
2011,05,24,04,43,6.00
2011,05,24,04,44,6.00
2011,05,24,04,45,6.00
2011,05,24,04,46,6.00
2011,05,24,04,47,6.00
2011,05,24,04,48,6.00
2011,05,24,04,49,6.00
2011,05,24,04,50,6.00
2011,05,24,04,51,6.00
2011,05,24,04,52,6.10
2011,05,24,04,53,6.10
2011,05,24,04,54,6.10
2011,05,24,04,55,6.10
2011,05,24,04,56,6.10
2011,05,24,04,57,6.10
2011,05,24,04,58,6.10
2011,05,24,04,59,6.10
2011,05,24,05,00,6.10
2011,05,24,05,01,6.10
2011,05,24,05,02,6.10
2011,05,24,05,03,6.10
2011,05,24,05,04,6.00
2011,05,24,05,05,6.00
2011,05,24,05,06,6.00
2011,05,24,05,07,6.00
2011,05,24,05,08,5.90
2011,05,24,05,09,5.90
2011,05,24,05,10,5.90
2011,05,24,05,11,5.90
2011,05,24,05,12,5.90
2011,05,24,05,13,5.90
2011,05,24,05,14,5.90
2011,05,24,05,15,5.80
2011,05,24,05,16,5.80
2011,05,24,05,17,5.80
2011,05,24,05,18,5.80
2011,05,24,05,19,5.80
2011,05,24,05,20,5.80
2011,05,24,05,21,5.80
2011,05,24,05,22,5.80
2011,05,24,05,23,5.80
2011,05,24,05,24,5.80
2011,05,24,05,25,5.70
2011,05,24,05,26,5.80
2011,05,24,05,27,5.80
2011,05,24,05,28,5.70
2011,05,24,05,29,5.70
2011,05,24,05,30,5.70
2011,05,24,05,31,5.70
2011,05,24,05,32,5.70
2011,05,24,05,33,5.80
2011,05,24,05,34,5.80
2011,05,24,05,35,5.80
2011,05,24,05,36,5.80
2011,05,24,05,37,5.80
2011,05,24,05,38,5.80
2011,05,24,05,39,5.80
2011,05,24,05,40,5.80
2011,05,24,05,41,5.80
2011,05,24,05,42,5.80
2011,05,24,05,43,5.80
2011,05,24,05,44,5.80
2011,05,24,05,45,5.80
2011,05,24,05,46,5.80
2011,05,24,05,47,5.80
2011,05,24,05,48,5.80
2011,05,24,05,49,5.80
2011,05,24,05,50,5.80
2011,05,24,05,51,5.80
2011,05,24,05,52,5.80
2011,05,24,05,53,5.80
2011,05,24,05,54,5.80
2011,05,24,05,55,5.80
2011,05,24,05,56,5.80
2011,05,24,05,57,5.80
2011,05,24,05,58,5.80
2011,05,24,05,59,5.70
2011,05,24,06,00,5.70
2011,05,24,06,01,5.70
2011,05,24,06,02,5.70
2011,05,24,06,03,5.70
2011,05,24,06,04,5.70
2011,05,24,06,05,5.70
2011,05,24,06,06,5.70
2011,05,24,06,07,5.70
2011,05,24,06,08,5.70
2011,05,24,06,09,5.70
2011,05,24,06,10,5.70
2011,05,24,06,11,5.70
2011,05,24,06,12,5.70
2011,05,24,06,13,5.70
2011,05,24,06,14,5.70
2011,05,24,06,15,5.70
2011,05,24,06,16,5.70
2011,05,24,06,17,5.80
2011,05,24,06,18,5.80
2011,05,24,06,19,5.80
2011,05,24,06,20,5.70
2011,05,24,06,21,5.70
2011,05,24,06,22,5.70
2011,05,24,06,23,5.70
2011,05,24,06,24,5.70
2011,05,24,06,25,5.70
2011,05,24,06,26,5.80
2011,05,24,06,27,5.80
2011,05,24,06,28,5.80
2011,05,24,06,29,5.80
2011,05,24,06,30,5.80
2011,05,24,06,31,5.80
2011,05,24,06,32,5.80
2011,05,24,06,33,5.80
2011,05,24,06,34,5.80
2011,05,24,06,35,5.80
2011,05,24,06,36,5.80
2011,05,24,06,37,5.80
2011,05,24,06,38,5.90
2011,05,24,06,39,5.90
2011,05,24,06,40,5.90
2011,05,24,06,41,5.90
2011,05,24,06,42,5.90
2011,05,24,06,43,5.90
2011,05,24,06,44,5.90
2011,05,24,06,45,6.00
2011,05,24,06,46,6.00
2011,05,24,06,47,6.00
2011,05,24,06,48,6.00
2011,05,24,06,49,6.00
2011,05,24,06,50,6.00
2011,05,24,06,51,6.00
2011,05,24,06,52,6.00
2011,05,24,06,53,6.10
2011,05,24,06,54,6.10
2011,05,24,06,55,6.10
2011,05,24,06,56,6.10
2011,05,24,06,57,6.10
2011,05,24,06,58,6.10
2011,05,24,06,59,6.20
2011,05,24,07,00,6.20
2011,05,24,07,01,6.20
2011,05,24,07,02,6.20
2011,05,24,07,03,6.20
2011,05,24,07,04,6.20
2011,05,24,07,05,6.20
2011,05,24,07,06,6.20
2011,05,24,07,07,6.20
2011,05,24,07,08,6.30
2011,05,24,07,09,6.30
2011,05,24,07,10,6.30
2011,05,24,07,11,6.30
2011,05,24,07,12,6.40
2011,05,24,07,13,6.40
2011,05,24,07,14,6.40
2011,05,24,07,15,6.40
2011,05,24,07,16,6.40
2011,05,24,07,17,6.50
2011,05,24,07,18,6.50
2011,05,24,07,19,6.50
2011,05,24,07,20,6.60
2011,05,24,07,21,6.60
2011,05,24,07,22,6.60
2011,05,24,07,23,6.70
2011,05,24,07,24,6.70
2011,05,24,07,25,6.70
2011,05,24,07,26,6.80
2011,05,24,07,27,6.80
2011,05,24,07,28,6.90
2011,05,24,07,29,7.00
2011,05,24,07,30,7.10
2011,05,24,07,31,7.10
2011,05,24,07,32,7.20
2011,05,24,07,33,7.20
2011,05,24,07,34,7.30
2011,05,24,07,35,7.30
2011,05,24,07,36,7.30
2011,05,24,07,37,7.40
2011,05,24,07,38,7.40
2011,05,24,07,39,7.40
2011,05,24,07,40,7.50
2011,05,24,07,41,7.50
2011,05,24,07,42,7.50
2011,05,24,07,43,7.50
2011,05,24,07,44,7.60
2011,05,24,07,45,7.60
2011,05,24,07,46,7.60
2011,05,24,07,47,7.70
2011,05,24,07,48,7.70
2011,05,24,07,49,7.70
2011,05,24,07,50,7.70
2011,05,24,07,51,7.80
2011,05,24,07,52,7.80
2011,05,24,07,53,7.80
2011,05,24,07,54,7.90
2011,05,24,07,55,7.90
2011,05,24,07,56,7.90
2011,05,24,07,57,8.00
2011,05,24,07,58,8.00
2011,05,24,07,59,8.00
2011,05,24,08,00,8.10
2011,05,24,08,01,8.10
2011,05,24,08,02,8.10
2011,05,24,08,03,8.10
2011,05,24,08,04,8.10
2011,05,24,08,05,8.20
2011,05,24,08,06,8.20
2011,05,24,08,07,8.20
2011,05,24,08,08,8.30
2011,05,24,08,09,8.30
2011,05,24,08,10,8.30
2011,05,24,08,11,8.40
2011,05,24,08,12,8.40
2011,05,24,08,13,8.40
2011,05,24,08,14,8.50
2011,05,24,08,15,8.50
2011,05,24,08,16,8.60
2011,05,24,08,17,8.60
2011,05,24,08,18,8.70
2011,05,24,08,19,8.70
2011,05,24,08,20,8.80
2011,05,24,08,21,8.80
2011,05,24,08,22,8.80
2011,05,24,08,23,8.90
2011,05,24,08,24,8.90
2011,05,24,08,25,8.90
2011,05,24,08,26,9.00
2011,05,24,08,27,9.00
2011,05,24,08,28,9.00
2011,05,24,08,29,9.00
2011,05,24,08,30,9.00
2011,05,24,08,31,9.00
2011,05,24,08,32,9.10
2011,05,24,08,33,9.10
2011,05,24,08,34,9.10
2011,05,24,08,35,9.20
2011,05,24,08,36,9.20
2011,05,24,08,37,9.20
2011,05,24,08,38,9.20
2011,05,24,08,39,9.30
2011,05,24,08,40,9.30
2011,05,24,08,41,9.30
2011,05,24,08,42,9.30
2011,05,24,08,43,9.30
2011,05,24,08,44,9.30
2011,05,24,08,45,9.30
2011,05,24,08,46,9.30
2011,05,24,08,47,9.30
2011,05,24,08,48,9.30
2011,05,24,08,49,9.40
2011,05,24,08,50,9.40
2011,05,24,08,51,9.40
2011,05,24,08,52,9.40
2011,05,24,08,53,9.40
2011,05,24,08,54,9.40
2011,05,24,08,55,9.40
2011,05,24,08,56,9.50
2011,05,24,08,57,9.50
2011,05,24,08,58,9.50
2011,05,24,08,59,9.60
2011,05,24,09,00,9.60
2011,05,24,09,01,9.60
2011,05,24,09,02,9.60
2011,05,24,09,03,9.60
2011,05,24,09,04,9.70
2011,05,24,09,05,9.70
2011,05,24,09,06,9.70
2011,05,24,09,07,9.70
2011,05,24,09,08,9.70
2011,05,24,09,09,9.70
2011,05,24,09,10,9.70
2011,05,24,09,11,9.70
2011,05,24,09,12,9.80
2011,05,24,09,13,9.80
2011,05,24,09,14,9.80
2011,05,24,09,15,9.80
2011,05,24,09,16,9.90
2011,05,24,09,17,9.90
2011,05,24,09,18,10.00
2011,05,24,09,19,10.00
2011,05,24,09,20,10.10
2011,05,24,09,21,10.20
2011,05,24,09,22,10.30
2011,05,24,09,23,10.30
2011,05,24,09,24,10.40
2011,05,24,09,25,10.40
2011,05,24,09,26,10.50
2011,05,24,09,27,10.60
2011,05,24,09,28,10.70
2011,05,24,09,29,10.80
2011,05,24,09,30,10.80
2011,05,24,09,31,10.90
2011,05,24,09,32,10.90
2011,05,24,09,33,10.80
2011,05,24,09,34,10.80
2011,05,24,09,35,10.80
2011,05,24,09,36,10.80
2011,05,24,09,37,10.80
2011,05,24,09,38,10.90
2011,05,24,09,39,10.90
2011,05,24,09,40,11.00
2011,05,24,09,41,11.00
2011,05,24,09,42,11.10
2011,05,24,09,43,11.10
2011,05,24,09,44,11.10
2011,05,24,09,45,11.10
2011,05,24,09,46,11.20
2011,05,24,09,47,11.20
2011,05,24,09,48,11.20
2011,05,24,09,49,11.30
2011,05,24,09,50,11.30
2011,05,24,09,51,11.40
2011,05,24,09,52,11.40
2011,05,24,09,53,11.40
2011,05,24,09,54,11.40
2011,05,24,09,55,11.40
2011,05,24,09,56,11.30
2011,05,24,09,57,11.30
2011,05,24,09,58,11.20
2011,05,24,09,59,11.20
2011,05,24,10,00,11.10
2011,05,24,10,01,11.10
2011,05,24,10,02,11.10
2011,05,24,10,03,11.10
2011,05,24,10,04,11.10
2011,05,24,10,05,11.10
2011,05,24,10,06,11.20
2011,05,24,10,07,11.20
2011,05,24,10,08,11.20
2011,05,24,10,09,11.30
2011,05,24,10,10,11.40
2011,05,24,10,11,11.40
2011,05,24,10,12,11.40
2011,05,24,10,13,11.40
2011,05,24,10,14,11.40
2011,05,24,10,15,11.40
2011,05,24,10,16,11.40
2011,05,24,10,17,11.40
2011,05,24,10,18,11.50
2011,05,24,10,19,11.60
2011,05,24,10,20,11.60
2011,05,24,10,21,11.60
2011,05,24,10,22,11.60
2011,05,24,10,23,11.70
2011,05,24,10,24,11.70
2011,05,24,10,25,11.70
2011,05,24,10,26,11.70
2011,05,24,10,27,11.60
2011,05,24,10,28,11.60
2011,05,24,10,29,11.60
2011,05,24,10,30,11.60
2011,05,24,10,31,11.60
2011,05,24,10,32,11.60
2011,05,24,10,33,11.70
2011,05,24,10,34,11.70
2011,05,24,10,35,11.80
2011,05,24,10,36,11.90
2011,05,24,10,37,12.00
2011,05,24,10,38,12.00
2011,05,24,10,39,12.00
2011,05,24,10,40,12.00
2011,05,24,10,41,12.10
2011,05,24,10,42,12.10
2011,05,24,10,43,12.10
2011,05,24,10,44,12.00
2011,05,24,10,45,11.90
2011,05,24,10,46,11.90
2011,05,24,10,47,11.90
2011,05,24,10,48,11.90
2011,05,24,10,49,11.90
2011,05,24,10,50,12.00
2011,05,24,10,51,12.00
2011,05,24,10,52,12.10
2011,05,24,10,53,12.20
2011,05,24,10,54,12.20
2011,05,24,10,55,12.30
2011,05,24,10,56,12.30
2011,05,24,10,57,12.30
2011,05,24,10,58,12.30
2011,05,24,10,59,12.30
2011,05,24,11,00,12.30
2011,05,24,11,01,12.20
2011,05,24,11,02,12.30
2011,05,24,11,03,12.30
2011,05,24,11,04,12.40
2011,05,24,11,05,12.50
2011,05,24,11,06,12.60
2011,05,24,11,07,12.70
2011,05,24,11,08,12.80
2011,05,24,11,09,12.80
2011,05,24,11,10,12.80
2011,05,24,11,11,12.80
2011,05,24,11,12,12.70
2011,05,24,11,13,12.70
2011,05,24,11,14,12.60
2011,05,24,11,15,12.60
2011,05,24,11,16,12.50
2011,05,24,11,17,12.50
2011,05,24,11,18,12.40
2011,05,24,11,19,12.40
2011,05,24,11,20,12.40
2011,05,24,11,21,12.40
2011,05,24,11,22,12.40
2011,05,24,11,23,12.30
2011,05,24,11,24,12.30
2011,05,24,11,25,12.30
2011,05,24,11,26,12.40
2011,05,24,11,27,12.40
2011,05,24,11,28,12.50
2011,05,24,11,29,12.50
2011,05,24,11,30,12.50
2011,05,24,11,31,12.50
2011,05,24,11,32,12.50
2011,05,24,11,33,12.60
2011,05,24,11,34,12.60
2011,05,24,11,35,12.60
2011,05,24,11,36,12.70
2011,05,24,11,37,12.70
2011,05,24,11,38,12.80
2011,05,24,11,39,12.80
2011,05,24,11,40,12.80
2011,05,24,11,41,12.90
2011,05,24,11,42,13.00
2011,05,24,11,43,13.20
2011,05,24,11,44,13.30
2011,05,24,11,45,13.40
2011,05,24,11,46,13.50
2011,05,24,11,47,13.60
2011,05,24,11,48,13.50
2011,05,24,11,49,13.50
2011,05,24,11,50,13.40
2011,05,24,11,51,13.30
2011,05,24,11,52,13.30
2011,05,24,11,53,13.30
2011,05,24,11,54,13.30
2011,05,24,11,55,13.30
2011,05,24,11,56,13.30
2011,05,24,11,57,13.30
2011,05,24,11,58,13.40
2011,05,24,11,59,13.50
2011,05,24,12,00,13.50
2011,05,24,12,01,13.60
2011,05,24,12,02,13.60
2011,05,24,12,03,13.70
2011,05,24,12,04,13.70
2011,05,24,12,05,13.70
2011,05,24,12,06,13.80
2011,05,24,12,07,13.80
2011,05,24,12,08,13.90
2011,05,24,12,09,13.90
2011,05,24,12,10,14.00
2011,05,24,12,11,14.00
2011,05,24,12,12,14.10
2011,05,24,12,13,14.10
2011,05,24,12,14,14.10
2011,05,24,12,15,14.10
2011,05,24,12,16,14.10
2011,05,24,12,17,14.10
2011,05,24,12,18,14.00
2011,05,24,12,19,14.00
2011,05,24,12,20,13.90
2011,05,24,12,21,13.90
2011,05,24,12,22,13.90
2011,05,24,12,23,14.00
2011,05,24,12,24,14.00
2011,05,24,12,25,14.10
2011,05,24,12,26,14.10
2011,05,24,12,27,14.10
2011,05,24,12,28,14.20
2011,05,24,12,29,14.20
2011,05,24,12,30,14.20
2011,05,24,12,31,14.30
2011,05,24,12,32,14.30
2011,05,24,12,33,14.30
2011,05,24,12,34,14.30
2011,05,24,12,35,14.30
2011,05,24,12,36,14.30
2011,05,24,12,37,14.30
2011,05,24,12,38,14.40
2011,05,24,12,39,14.50
2011,05,24,12,40,14.50
2011,05,24,12,41,14.60
2011,05,24,12,42,14.60
2011,05,24,12,43,14.70
2011,05,24,12,44,14.80
2011,05,24,12,45,14.90
2011,05,24,12,46,15.00
2011,05,24,12,47,15.10
2011,05,24,12,48,15.20
2011,05,24,12,49,15.20
2011,05,24,12,50,15.20
2011,05,24,12,51,15.20
2011,05,24,12,52,15.20
2011,05,24,12,53,15.00
2011,05,24,12,54,14.80
2011,05,24,12,55,14.70
2011,05,24,12,56,14.60
2011,05,24,12,57,14.50
2011,05,24,12,58,14.40
2011,05,24,12,59,14.30
2011,05,24,13,00,14.30
2011,05,24,13,01,14.20
2011,05,24,13,02,14.10
2011,05,24,13,03,14.10
2011,05,24,13,04,14.10
2011,05,24,13,05,14.10
2011,05,24,13,06,14.10
2011,05,24,13,07,14.00
2011,05,24,13,08,13.90
2011,05,24,13,09,13.90
2011,05,24,13,10,13.90
2011,05,24,13,11,13.90
2011,05,24,13,12,14.00
2011,05,24,13,13,14.00
2011,05,24,13,14,14.00
2011,05,24,13,15,13.90
2011,05,24,13,16,13.90
2011,05,24,13,17,13.90
2011,05,24,13,18,14.00
2011,05,24,13,19,14.00
2011,05,24,13,20,14.10
2011,05,24,13,21,14.10
2011,05,24,13,22,14.20
2011,05,24,13,23,14.40
2011,05,24,13,24,14.50
2011,05,24,13,25,14.60
2011,05,24,13,26,14.60
2011,05,24,13,27,14.70
2011,05,24,13,28,14.80
2011,05,24,13,29,14.80
2011,05,24,13,30,14.90
2011,05,24,13,31,15.00
2011,05,24,13,32,15.00
2011,05,24,13,33,15.10
2011,05,24,13,34,15.20
2011,05,24,13,35,15.20
2011,05,24,13,36,15.10
2011,05,24,13,37,15.10
2011,05,24,13,38,15.00
2011,05,24,13,39,14.90
2011,05,24,13,40,14.80
2011,05,24,13,41,14.70
2011,05,24,13,42,14.70
2011,05,24,13,43,14.60
2011,05,24,13,44,14.60
2011,05,24,13,45,14.50
2011,05,24,13,46,14.50
2011,05,24,13,47,14.50
2011,05,24,13,48,14.40
2011,05,24,13,49,14.40
2011,05,24,13,50,14.40
2011,05,24,13,51,14.50
2011,05,24,13,52,14.40
2011,05,24,13,53,14.40
2011,05,24,13,54,14.40
2011,05,24,13,55,14.40
2011,05,24,13,56,14.40
2011,05,24,13,57,14.40
2011,05,24,13,58,14.50
2011,05,24,13,59,14.50
2011,05,24,14,00,14.60
2011,05,24,14,01,14.60
2011,05,24,14,02,14.60
2011,05,24,14,03,14.60
2011,05,24,14,04,14.60
2011,05,24,14,05,14.60
2011,05,24,14,06,14.70
2011,05,24,14,07,14.70
2011,05,24,14,08,14.80
2011,05,24,14,09,14.90
2011,05,24,14,10,15.00
2011,05,24,14,11,15.00
2011,05,24,14,12,15.00
2011,05,24,14,13,14.90
2011,05,24,14,14,14.80
2011,05,24,14,15,14.70
2011,05,24,14,16,14.60
2011,05,24,14,17,14.60
2011,05,24,14,18,14.60
2011,05,24,14,19,14.60
2011,05,24,14,20,14.60
2011,05,24,14,21,14.70
2011,05,24,14,22,14.70
2011,05,24,14,23,14.70
2011,05,24,14,24,14.80
2011,05,24,14,25,14.90
2011,05,24,14,26,14.90
2011,05,24,14,27,15.00
2011,05,24,14,28,15.10
2011,05,24,14,29,15.20
2011,05,24,14,30,15.20
2011,05,24,14,31,15.30
2011,05,24,14,32,15.30
2011,05,24,14,33,15.30
2011,05,24,14,34,15.20
2011,05,24,14,35,15.20
2011,05,24,14,36,15.20
2011,05,24,14,37,15.20
2011,05,24,14,38,15.20
2011,05,24,14,39,15.20
2011,05,24,14,40,15.10
2011,05,24,14,41,15.10
2011,05,24,14,42,15.10
2011,05,24,14,43,15.00
2011,05,24,14,44,15.00
2011,05,24,14,45,15.00
2011,05,24,14,46,15.00
2011,05,24,14,47,14.90
2011,05,24,14,48,14.90
2011,05,24,14,49,14.80
2011,05,24,14,50,14.70
2011,05,24,14,51,14.60
2011,05,24,14,52,14.40
2011,05,24,14,53,14.20
2011,05,24,14,54,14.10
2011,05,24,14,55,13.90
2011,05,24,14,56,13.80
2011,05,24,14,57,13.70
2011,05,24,14,58,13.60
2011,05,24,14,59,13.60
2011,05,24,15,00,13.50
2011,05,24,15,01,13.50
2011,05,24,15,02,13.60
2011,05,24,15,03,13.60
2011,05,24,15,04,13.50
2011,05,24,15,05,13.50
2011,05,24,15,06,13.50
2011,05,24,15,07,13.50
2011,05,24,15,08,13.50
2011,05,24,15,09,13.50
2011,05,24,15,10,13.40
2011,05,24,15,11,13.50
2011,05,24,15,12,13.60
2011,05,24,15,13,13.60
2011,05,24,15,14,13.60
2011,05,24,15,15,13.60
2011,05,24,15,16,13.50
2011,05,24,15,17,13.50
2011,05,24,15,18,13.50
2011,05,24,15,19,13.50
2011,05,24,15,20,13.40
2011,05,24,15,21,13.40
2011,05,24,15,22,13.50
2011,05,24,15,23,13.40
2011,05,24,15,24,13.40
2011,05,24,15,25,13.30
2011,05,24,15,26,13.30
2011,05,24,15,27,13.40
2011,05,24,15,28,13.40
2011,05,24,15,29,13.40
2011,05,24,15,30,13.40
2011,05,24,15,31,13.40
2011,05,24,15,32,13.40
2011,05,24,15,33,13.40
2011,05,24,15,34,13.50
2011,05,24,15,35,13.50
2011,05,24,15,36,13.60
2011,05,24,15,37,13.70
2011,05,24,15,38,13.80
2011,05,24,15,39,13.80
2011,05,24,15,40,13.80
2011,05,24,15,41,13.80
2011,05,24,15,42,13.70
2011,05,24,15,43,13.70
2011,05,24,15,44,13.60
2011,05,24,15,45,13.60
2011,05,24,15,46,13.60
2011,05,24,15,47,13.60
2011,05,24,15,48,13.50
2011,05,24,15,49,13.50
2011,05,24,15,50,13.60
2011,05,24,15,51,13.70
2011,05,24,15,52,13.80
2011,05,24,15,53,13.90
2011,05,24,15,54,14.10
2011,05,24,15,55,14.20
2011,05,24,15,56,14.30
2011,05,24,15,57,14.40
2011,05,24,15,58,14.60
2011,05,24,15,59,14.70
2011,05,24,16,00,14.80
2011,05,24,16,01,14.90
2011,05,24,16,02,15.00
2011,05,24,16,03,15.00
2011,05,24,16,04,15.10
2011,05,24,16,05,15.20
2011,05,24,16,06,15.30
2011,05,24,16,07,15.30
2011,05,24,16,08,15.40
2011,05,24,16,09,15.40
2011,05,24,16,10,15.50
2011,05,24,16,11,15.50
2011,05,24,16,12,15.60
2011,05,24,16,13,15.60
2011,05,24,16,14,15.70
2011,05,24,16,15,15.70
2011,05,24,16,16,15.80
2011,05,24,16,17,15.80
2011,05,24,16,18,15.80
2011,05,24,16,19,15.80
2011,05,24,16,20,15.80
2011,05,24,16,21,15.80
2011,05,24,16,22,15.80
2011,05,24,16,23,15.80
2011,05,24,16,24,15.90
2011,05,24,16,25,15.90
2011,05,24,16,26,16.00
2011,05,24,16,27,16.00
2011,05,24,16,28,16.10
2011,05,24,16,29,16.10
2011,05,24,16,30,16.20
2011,05,24,16,31,16.20
2011,05,24,16,32,16.20
2011,05,24,16,33,16.20
2011,05,24,16,34,16.20
2011,05,24,16,35,16.20
2011,05,24,16,36,16.20
2011,05,24,16,37,16.20
2011,05,24,16,38,16.20
2011,05,24,16,39,16.20
2011,05,24,16,40,16.20
2011,05,24,16,41,16.20
2011,05,24,16,42,16.20
2011,05,24,16,43,16.20
2011,05,24,16,44,16.20
2011,05,24,16,45,16.20
2011,05,24,16,46,16.20
2011,05,24,16,47,16.20
2011,05,24,16,48,16.20
2011,05,24,16,49,16.20
2011,05,24,16,50,16.20
2011,05,24,16,51,16.20
2011,05,24,16,52,16.20
2011,05,24,16,53,16.20
2011,05,24,16,54,16.10
2011,05,24,16,55,16.10
2011,05,24,16,56,16.10
2011,05,24,16,57,16.00
2011,05,24,16,58,16.00
2011,05,24,16,59,15.90
2011,05,24,17,00,15.90
2011,05,24,17,01,15.90
2011,05,24,17,02,15.80
2011,05,24,17,03,15.80
2011,05,24,17,04,15.70
2011,05,24,17,05,15.60
2011,05,24,17,06,15.60
2011,05,24,17,07,15.60
2011,05,24,17,08,15.50
2011,05,24,17,09,15.40
2011,05,24,17,10,15.40
2011,05,24,17,11,15.30
2011,05,24,17,12,15.20
2011,05,24,17,13,15.20
2011,05,24,17,14,15.10
2011,05,24,17,15,15.00
2011,05,24,17,16,14.90
2011,05,24,17,17,14.90
2011,05,24,17,18,14.90
2011,05,24,17,19,14.80
2011,05,24,17,20,14.80
2011,05,24,17,21,14.80
2011,05,24,17,22,14.80
2011,05,24,17,23,14.80
2011,05,24,17,24,14.80
2011,05,24,17,25,14.80
2011,05,24,17,26,14.80
2011,05,24,17,27,14.80
2011,05,24,17,28,14.80
2011,05,24,17,29,14.90
2011,05,24,17,30,14.90
2011,05,24,17,31,14.90
2011,05,24,17,32,14.90
2011,05,24,17,33,15.00
2011,05,24,17,34,15.00
2011,05,24,17,35,15.00
2011,05,24,17,36,15.00
2011,05,24,17,37,15.00
2011,05,24,17,38,15.00
2011,05,24,17,39,14.90
2011,05,24,17,40,14.80
2011,05,24,17,41,14.80
2011,05,24,17,42,14.80
2011,05,24,17,43,14.80